Find Meteor-2

NORAD ID: 8026 Int'l Des: 1975-064 Owner: GUKOSR/GMS Country: SU operational
LEOCIRCULARPOLAR

現在のビュー

3D地球を読み込み中...

Meteor-2について

説明を読み込み中...

次回通過

Passes for default location (London). Set your location on the main map for personalized predictions.

高度履歴

Loading altitude history...

軌道要素

1 8026U 75064A 26151.17616087 .00000063 00000-0 28469-4 0 9991
2 8026 81.2802 39.7792 0021398 268.3480 91.5240 14.10806270616946
Epoch: May 31, 2026 • Age: 15 hours

現在のステータス

高度 863.5 km
速度 7.43 km/s
衛星直下点 -50.06°S, 56.35°E
タイプ other

Most Searched